This is the latest recevied weather packets stored in our database for station/object K0WXC-1. If no packets are shown the sender has not sent any weather packets the latest 10 day(s).
| Time | Temp. | Humidity | Pressure | Rain* | Wind** | Luminosity | Snow |
|---|---|---|---|---|---|---|---|
| 1777196668 | 12.78° C | 69% | 999.9 hPa | 0 mm | 1.34 m/s, 71° | - | - |
| 1777196608 | 12.78° C | 69% | 999.9 hPa | 0 mm | 1.34 m/s, 71° | - | - |
| 1777196548 | 12.78° C | 69% | 999.9 hPa | 0 mm | 1.34 m/s, 71° | - | - |
| 1777196488 | 12.78° C | 69% | 999.9 hPa | 0 mm | 1.34 m/s, 71° | - | - |
| 1777196428 | 12.78° C | 68% | 999.8 hPa | 0 mm | 3.13 m/s, 72° | - | - |
| 1777196368 | 12.78° C | 68% | 999.8 hPa | 0 mm | 3.13 m/s, 72° | - | - |
| 1777196308 | 12.78° C | 68% | 999.8 hPa | 0 mm | 3.13 m/s, 72° | - | - |
| 1777196248 | 12.78° C | 68% | 999.8 hPa | 0 mm | 3.13 m/s, 72° | - | - |
| 1777196188 | 12.78° C | 68% | 999.8 hPa | 0 mm | 3.13 m/s, 72° | - | - |
| 1777196128 | 13.33° C | 68% | 999.8 hPa | 0 mm | 0.89 m/s, 95° | - | - |
| 1777196068 | 13.33° C | 68% | 999.8 hPa | 0 mm | 0.89 m/s, 95° | - | - |
| 1777196008 | 13.33° C | 68% | 999.8 hPa | 0 mm | 0.89 m/s, 95° | - | - |
| 1777195949 | 13.33° C | 68% | 999.8 hPa | 0 mm | 0.89 m/s, 95° | - | - |
| 1777195888 | 13.33° C | 68% | 999.8 hPa | 0 mm | 0.89 m/s, 95° | - | - |
| 1777195828 | 13.33° C | 67% | 1000 hPa | 0 mm | 1.34 m/s, 50° | - | - |
| 1777195768 | 13.33° C | 67% | 1000 hPa | 0 mm | 1.34 m/s, 50° | - | - |
| 1777195708 | 13.33° C | 67% | 1000 hPa | 0 mm | 1.34 m/s, 50° | - | - |
| 1777195648 | 13.33° C | 67% | 1000 hPa | 0 mm | 1.34 m/s, 50° | - | - |
| 1777195588 | 13.33° C | 67% | 1000 hPa | 0 mm | 1.34 m/s, 50° | - | - |
| 1777195528 | 13.33° C | 67% | 999.8 hPa | 0 mm | 1.79 m/s, 103° | - | - |
| 1777195468 | 13.33° C | 67% | 999.8 hPa | 0 mm | 1.79 m/s, 103° | - | - |
| 1777195408 | 13.33° C | 67% | 999.8 hPa | 0 mm | 1.79 m/s, 103° | - | - |
| 1777195348 | 13.33° C | 67% | 999.8 hPa | 0 mm | 1.79 m/s, 103° | - | - |
| 1777195288 | 13.33° C | 67% | 999.8 hPa | 0 mm | 1.79 m/s, 103° | - | - |
| 1777195228 | 13.33° C | 67% | 999.9 hPa | 0 mm | 2.24 m/s, 114° | - | - |
* Rain latest hour (hover to see other rain measurements)
** Current wind speed in m/s (hover to see current wind gust speed)